Location: Doussal
(55.6167°N, 116.8333°W)
Time: 21:43:08
(UTC+00:00)

Max Valier Satellite - Visible Passes

Search period start: 29 November 2023 00:00
Search period end: 09 December 2023 00:00
Orbit: 414 x 421 km, 97.1° (Epoch: 29 November)

Date Brightness Start Highest point End Pass type
(mag) Time Alt. Az. Time Alt. Az. Time Alt. Az.
29 Nov ? 14:59:43 10° ENE 15:01:25 13° E 15:03:07 10° ESE visible
01 Dec ? 15:01:40 10° NE 15:03:29 14° E 15:05:17 10° ESE visible
03 Dec ? 15:03:17 10° NE 15:05:11 15° E 15:07:03 10° SE visible
05 Dec ? 15:04:33 10° NE 15:06:30 15° E 15:08:27 10° SE visible
07 Dec ? 15:05:28 10° NE 15:07:28 15° E 15:09:27 10° SE visible
